カタログに戻る

TROOP-F3

運用中軍事SSO
NORAD 68429·PAYLOAD·🇺🇸 United States

打ち上げ Mar 30, 2026 から Vandenberg Space Force Base

Loading…

次のパス (今後24時間)

TLE

最新Source: Space-Track

元期: Sep 14, 2026, 14:43 UTC

1 68429U 26067P   26257.61347996  .00010783  00000-0  48312-3 0  9997
2 68429  97.4602 215.1186 0004612  84.0862 276.0900 15.21412943 25535

AllMySatでTROOP-F3をリアルタイム追跡

Download on the App Store